Location: Aula-Vintri
(58.3875°N, 22.4322°E)
Time: 15:57:30
(UTC+00:00)

Falcon 9 debris - Pass Details

Date: 13 October 2019
Orbit: 430 x 438 km, 53.0° (Epoch: 12 November)

Event Time Altitude Azimuth Distance (km) Brightness Sun altitude
Rises 17:51:02 0° 260° (W) 2,407 ? -18.9°
Reaches altitude 10° 17:53:16 10° 251° (WSW) 1,540 ? -19.2°
Enters shadow 17:56:19 33° 189° (S) 763 ? -19.6°
